Provo, UT

5:07 AM MST on November 20, 2019 (GMT -0700)
Provo Municipal

Weather History for KPVU - September, 2019

Change the Weather History Date:

Sunday, September 15, 2019

  Actual Average Record
Temperature  
Mean Temperature 70 °F -  
Max Temperature 90 °F 74 °F 95 °F (2000)
Min Temperature 51 °F 47 °F 37 °F (2004)
Cooling Degree Days 6    
Growing Degree Days 20 (Base 50)    
Moisture  
Dew Point 40 °F    
Average Humidity 37    
Maximum Humidity 71    
Minimum Humidity 12    
Precipitation  
Precipitation 0.00 in - - ()
Sea Level Pressure  
Sea Level Pressure 29.88 in    
Wind  
Wind Speed 5 mph (SE)    
Max Wind Speed 13 mph    
Max Gust Speed -    
Visibility 10 miles    
Events      
Averages and records for this station are not official NWS values.
T = Trace of Precipitation, MM = Missing Value Source: NWS Daily Summary

Daily Weather History Graph

Daily Weather History Graph

Search for Another Location

Airport or City:

Astronomy

Sep. 15, 2019 Rise Set
Actual Time 7:07 AM MDT 7:35 PM MDT
Civil Twilight 6:40 AM MDT 8:03 PM MDT
Nautical Twilight 6:08 AM MDT 8:35 PM MDT
Astronomical Twilight 5:35 AM MDT 9:08 PM MDT
Moon 8:45 PM MDT (9/15) 8:21 AM MDT (9/15)
Length of Visible Light 13h 22m
Length of Day
12h 28m
Full, 98% of the Moon is Illuminated
Sep 15
Full
Sep 21
Last Quarter
Sep 28
New
Oct 5
First Quarter
Oct 13
Full

Hourly Weather History & Observations

Time (MDT) Temp. Dew Point Humidity Pressure Visibility Wind Dir Wind Speed Gust Speed Precip Events Conditions
12:56 AM 62.1 °F 39.0 °F 43% 29.97 in 10.0 mi Calm Calm - N/A   Clear
1:56 AM 54.0 °F 44.1 °F 69% 29.99 in 10.0 mi NE 4.6 mph - N/A   Clear
2:56 AM 57.9 °F 43.0 °F 58% 29.96 in 10.0 mi SW 6.9 mph - N/A   Clear
3:56 AM 55.9 °F 42.1 °F 60% 29.96 in 10.0 mi ESE 4.6 mph - N/A   Clear
4:56 AM 55.9 °F 43.0 °F 62% 29.94 in 10.0 mi Calm Calm - N/A   Clear
5:56 AM 61.0 °F 42.1 °F 50% 29.93 in 10.0 mi West 8.1 mph - N/A   Clear
6:56 AM 55.0 °F 39.0 °F 55% 29.95 in 10.0 mi ESE 5.8 mph - N/A   Partly Cloudy
7:56 AM 51.1 °F 42.1 °F 71% 30.00 in 10.0 mi Variable 5.8 mph - N/A   Partly Cloudy
8:56 AM 64.0 °F 43.0 °F 46% 29.99 in 10.0 mi ESE 5.8 mph - N/A   Partly Cloudy
9:56 AM 69.1 °F 39.0 °F 33% 29.99 in 10.0 mi ESE 3.5 mph - N/A   Partly Cloudy
11:56 AM 78.1 °F 35.1 °F 21% 29.94 in 10.0 mi Calm Calm - N/A   Partly Cloudy
12:56 PM 86.0 °F 35.1 °F 16% 29.90 in 10.0 mi SE 6.9 mph - N/A   Partly Cloudy
1:56 PM 87.1 °F 33.1 °F 15% 29.88 in 10.0 mi Variable 3.5 mph - N/A   Scattered Clouds
2:56 PM 88.0 °F 28.9 °F 12% 29.84 in 10.0 mi Calm Calm - N/A   Scattered Clouds
3:56 PM 89.1 °F 30.9 °F 12% 29.81 in 10.0 mi Variable 4.6 mph - N/A   Scattered Clouds
4:56 PM 90.0 °F 30.9 °F 12% 29.78 in 10.0 mi South 3.5 mph - N/A   Scattered Clouds
5:56 PM 87.1 °F 39.0 °F 18% 29.76 in 10.0 mi WSW 4.6 mph - N/A   Scattered Clouds
6:56 PM 81.0 °F 51.1 °F 35% 29.78 in 10.0 mi SW 11.5 mph - N/A   Scattered Clouds
7:56 PM 75.0 °F 46.9 °F 37% 29.80 in 10.0 mi ESE 5.8 mph - N/A   Scattered Clouds
8:56 PM 73.0 °F 45.0 °F 37% 29.79 in 10.0 mi SE 12.7 mph - N/A   Scattered Clouds
9:56 PM 75.9 °F 41.0 °F 29% 29.79 in 10.0 mi South 12.7 mph - N/A   Clear
10:56 PM 75.9 °F 41.0 °F 29% 29.79 in 10.0 mi ESE 10.4 mph - N/A   Clear
11:56 PM 75.0 °F 41.0 °F 29% 29.79 in 10.0 mi SSE 11.5 mph - N/A   Clear